OBJECT G, 60209

Orbit data source: Space-Track

You're viewing an Uncataloged Satellite

Recently launched and/or uncataloged satellites may have evolving metadata. Metadata may include but not limited to: Owner, Maufacturer, Bus, Motor, and Mission.

OBJECT G, 60209 is an American satellite in SSO that was launched on Thu, 04 Jul 2024 UTC via an FIREFLY ALPHA launch vehicle from the Air Force Western Test Range (AFWTR). Unknown objects in Earth's orbit typically refer to objects detected orbiting the Earth but have not yet been identified or cataloged. These objects could be anything from previously untracked satellites, spent rocket stages, debris from satellite collisions, or even natural meteoroids temporarily captured by Earth's gravity.

Loading next visibility...
Identifier
60209, 2024-125G
Orbit
SSO
Country
Flag of USUS
Related business
Flag of USUniversity of Maine (US)
Manufacturer
UME
Mission
Operational Amateur Science
Bus & Motor
CUBESAT 3U, Unknown motor
Mass
3 kg wet, 3 kg dry
Launch date (UTC)
2024-07-04 (1 year ago)
Launch vehicle
FIREFLY ALPHA
Launch site
Air Force Western Test Range (AFWTR)
Object type
Unknown
Shape & HBR
Box, 0.1 m
Radar Cross Section
0.035 m², Small (<0.1 m²)

Expand to show TLE details & history
Last TLE update: 10 hours ago

TLE from 10 hours ago
0 OBJECT G
1 60209U 24125G   25289.16937757  .00028238  00000-0  66546-3 0  9995
2 60209  97.2619 139.6719 0017611  38.7579 321.4928 15.41721178 71727
Epoch: 2025-10-16T04:03Z
TLE epoch observation values (Epoch: 2025-10-16T04:03:54.222Z)
Latitude
0.00001°
Longitude
53.76302°
Altitude
434.762 km
Speed
7.656 km/s
True Right ascension
09h 18m 41s
True Declination
0° 00' 00"
Sunlit
Object was in daylight at epoch
Visualization orbit readout
Latitude
Unknown
Longitude
Unknown
Altitude
Unknown
Speed
Unknown
Apparent Right ascension
Unknown
Apparent Declination
Unknown
Sunlit
N/A
Visualization observer readout
Local Sidereal Time
08:21:05
Azimuth
Unknown
Elevation
Unknown
Doppler factor
Unknown
Orbital elements
Apogee altitude
449.964 km
Perigee altitude
425.956 km
Semi-major axis
6,816.097 km
Eccentricity
0.00176
Inclination
97.2619°
RAAN
139.6719°
Arg. of periapsis
38.7579°
True anomaly
321.36694°
Mean anomaly
321.4928°
Eccentric anomaly
321.42989°
Mean motion
3.85691 °/min
Orbital period
93.34 mins
BSTAR
0.00066546
Loading maneuver chart data...
Computing Atmospheric mass density...
Loading historical data...
Loading historical data...
Loading historical data...
Loading historical data...
Loading historical data...
Loading historical data...
Loading historical data...

Documentation

Showing up to 5 results
|